Location: Newark
(46.7000°N, 60.6000°W)
Time: 21:26:36
(UTC+00:00)

Vanguard 1 Rocket - Pass Details

Date: 03 November 2020
Orbit: 656 x 4221 km, 34.3° (Epoch: 30 November)

Event Time Altitude Azimuth Distance (km) Brightness Sun altitude
Rises 16:54:56 0° 251° (WSW) 3,020 10.6 26.0°
Reaches altitude 10° 16:59:06 10° 212° (SSW) 2,066 10.9 25.8°
Maximum altitude 17:00:15 11° 197° (SSW) 2,038 11.2 25.7°
Drops below altitude 10° 17:01:26 10° 182° (S) 2,141 10.8 25.7°
Sets 17:06:08 0° 145° (SE) 3,409 10.8 25.4°
